Time,TemperatureF,DewpointF,PressureIn,WindDirection,WindDirectionDegrees,WindSpeedMPH,WindSpeedGustMPH,Humidity,HourlyPrecipIn,Conditions,Clouds,dailyrainin,SoftwareType,DateUTC
2013-05-08 00:01:00,47.7,44.3,29.85,SW,231,0.0,1.0,88,0.00,,,0.00,WUHU216DAVISVP2,2013-05-08 06:01:00,
2013-05-08 00:06:00,47.7,44.3,29.84,SW,231,0.0,1.0,88,0.00,,,0.00,WUHU216DAVISVP2,2013-05-08 06:06:00,
2013-05-08 00:11:00,47.5,44.1,29.84,SW,231,0.0,1.0,88,0.00,,,0.00,WUHU216DAVISVP2,2013-05-08 06:11:00,
2013-05-08 00:16:00,47.3,43.9,29.84,SW,219,0.0,1.0,88,0.00,,,0.00,WUHU216DAVISVP2,2013-05-08 06:16:00,
2013-05-08 00:21:00,47.0,43.6,29.84,SW,219,0.0,1.0,88,0.00,,,0.00,WUHU216DAVISVP2,2013-05-08 06:21:00,
2013-05-08 00:26:00,46.9,43.5,29.84,South,185,1.3,2.0,88,0.00,,,0.00,WUHU216DAVISVP2,2013-05-08 06:26:00,
2013-05-08 00:31:00,46.9,43.2,29.84,South,178,1.1,4.0,87,0.00,,,0.00,WUHU216DAVISVP2,2013-05-08 06:31:00,
2013-05-08 00:36:00,46.8,42.8,29.84,SSE,155,1.0,4.0,86,0.00,,,0.00,WUHU216DAVISVP2,2013-05-08 06:36:00,
2013-05-08 00:41:00,46.8,42.5,29.84,SSE,157,2.0,4.0,85,0.00,,,0.00,WUHU216DAVISVP2,2013-05-08 06:41:00,
2013-05-08 00:46:00,46.6,42.0,29.83,SE,138,1.0,3.0,84,0.00,,,0.00,WUHU216DAVISVP2,2013-05-08 06:46:00,
2013-05-08 00:51:00,46.5,41.6,29.83,SE,125,1.0,3.0,83,0.00,,,0.00,WUHU216DAVISVP2,2013-05-08 06:51:00,
2013-05-08 00:56:00,46.4,41.5,29.83,South,188,0.0,3.0,83,0.00,,,0.00,WUHU216DAVISVP2,2013-05-08 06:56:00,
2013-05-08 01:01:00,46.2,41.3,29.83,SSE,161,0.0,3.0,83,0.00,,,0.00,WUHU216DAVISVP2,2013-05-08 07:01:00,
2013-05-08 01:06:00,46.1,41.2,29.83,ESE,114,1.0,3.0,83,0.00,,,0.00,WUHU216DAVISVP2,2013-05-08 07:06:00,
2013-05-08 01:11:00,45.9,41.0,29.83,ESE,119,1.0,2.0,83,0.00,,,0.00,WUHU216DAVISVP2,2013-05-08 07:11:00,
2013-05-08 01:16:00,46.0,40.8,29.83,SSE,162,1.0,3.0,82,0.00,,,0.00,WUHU216DAVISVP2,2013-05-08 07:16:00,
2013-05-08 01:21:00,45.9,40.7,29.82,SSE,161,1.0,3.0,82,0.00,,,0.00,WUHU216DAVISVP2,2013-05-08 07:21:00,
2013-05-08 01:26:00,45.8,40.6,29.82,South,174,1.0,3.0,82,0.00,,,0.00,WUHU216DAVISVP2,2013-05-08 07:26:00,
2013-05-08 01:31:00,45.7,40.5,29.82,South,189,1.0,3.0,82,0.00,,,0.00,WUHU216DAVISVP2,2013-05-08 07:31:00,
2013-05-08 01:36:00,45.5,40.3,29.82,SE,145,1.5,2.0,82,0.00,,,0.00,WUHU216DAVISVP2,2013-05-08 07:36:00,
2013-05-08 01:41:00,45.4,40.2,29.82,SSW,206,1.1,3.0,82,0.00,,,0.00,WUHU216DAVISVP2,2013-05-08 07:41:00,
2013-05-08 01:46:00,45.3,40.1,29.82,SW,214,1.0,3.0,82,0.00,,,0.00,WUHU216DAVISVP2,2013-05-08 07:46:00,
2013-05-08 01:51:00,45.2,40.3,29.81,South,190,1.1,3.0,83,0.00,,,0.00,WUHU216DAVISVP2,2013-05-08 07:51:00,
2013-05-08 01:56:00,45.1,40.2,29.81,SSW,198,1.2,3.0,83,0.00,,,0.00,WUHU216DAVISVP2,2013-05-08 07:56:00,
2013-05-08 02:01:00,45.0,40.1,29.81,South,181,1.3,3.0,83,0.00,,,0.00,WUHU216DAVISVP2,2013-05-08 08:01:00,
2013-05-08 02:06:00,44.9,40.1,29.81,SSE,166,1.5,3.0,83,0.00,,,0.00,WUHU216DAVISVP2,2013-05-08 08:06:00,
2013-05-08 02:11:00,44.8,40.0,29.81,SSE,150,0.0,3.0,83,0.00,,,0.00,WUHU216DAVISVP2,2013-05-08 08:11:00,
2013-05-08 02:16:00,44.6,39.8,29.81,SSE,150,0.0,3.0,83,0.00,,,0.00,WUHU216DAVISVP2,2013-05-08 08:16:00,
2013-05-08 02:21:00,44.5,40.0,29.81,SSE,150,0.0,2.0,84,0.00,,,0.00,WUHU216DAVISVP2,2013-05-08 08:21:00,
2013-05-08 02:26:00,44.4,39.9,29.81,SSE,160,1.0,1.0,84,0.00,,,0.00,WUHU216DAVISVP2,2013-05-08 08:26:00,
2013-05-08 02:31:00,44.4,39.9,29.81,SSE,148,1.0,2.0,84,0.00,,,0.00,WUHU216DAVISVP2,2013-05-08 08:31:00,
2013-05-08 02:36:00,44.4,39.9,29.81,SSE,158,1.0,2.0,84,0.00,,,0.00,WUHU216DAVISVP2,2013-05-08 08:36:00,
2013-05-08 02:41:00,44.4,39.9,29.81,SSE,167,1.0,2.0,84,0.00,,,0.00,WUHU216DAVISVP2,2013-05-08 08:41:00,
2013-05-08 02:46:00,44.5,39.7,29.81,SSE,151,1.5,3.0,83,0.00,,,0.00,WUHU216DAVISVP2,2013-05-08 08:46:00,
2013-05-08 02:51:00,44.5,39.7,29.81,SE,131,1.0,3.0,83,0.00,,,0.00,WUHU216DAVISVP2,2013-05-08 08:51:00,
2013-05-08 02:56:00,44.5,39.7,29.81,South,191,1.0,3.0,83,0.00,,,0.00,WUHU216DAVISVP2,2013-05-08 08:56:00,
2013-05-08 03:01:00,44.5,39.7,29.81,SSE,148,0.0,3.0,83,0.00,,,0.00,WUHU216DAVISVP2,2013-05-08 09:01:00,
2013-05-08 03:06:00,44.3,39.5,29.81,SSE,155,0.0,2.0,83,0.00,,,0.00,WUHU216DAVISVP2,2013-05-08 09:06:00,
2013-05-08 03:11:00,44.2,39.4,29.81,SE,134,1.1,2.0,83,0.00,,,0.00,WUHU216DAVISVP2,2013-05-08 09:11:00,
2013-05-08 03:16:00,44.2,39.4,29.81,SSE,151,0.0,2.0,83,0.00,,,0.00,WUHU216DAVISVP2,2013-05-08 09:16:00,
2013-05-08 03:21:00,44.2,39.4,29.81,SSE,151,0.0,2.0,83,0.00,,,0.00,WUHU216DAVISVP2,2013-05-08 09:21:00,
2013-05-08 03:26:00,44.0,39.2,29.81,SSE,151,0.0,2.0,83,0.00,,,0.00,WUHU216DAVISVP2,2013-05-08 09:26:00,
2013-05-08 03:31:00,43.8,39.3,29.81,SSE,151,0.0,0.0,84,0.00,,,0.00,WUHU216DAVISVP2,2013-05-08 09:31:00,
2013-05-08 03:36:00,43.5,39.0,29.81,SSE,151,0.0,0.0,84,0.00,,,0.00,WUHU216DAVISVP2,2013-05-08 09:36:00,
2013-05-08 03:41:00,43.2,39.0,29.81,SSE,151,0.0,0.0,85,0.00,,,0.00,WUHU216DAVISVP2,2013-05-08 09:41:00,
2013-05-08 03:46:00,43.1,39.2,29.81,SW,224,1.0,1.0,86,0.00,,,0.00,WUHU216DAVISVP2,2013-05-08 09:46:00,
2013-05-08 03:51:00,43.0,39.1,29.81,SW,224,0.0,1.0,86,0.00,,,0.00,WUHU216DAVISVP2,2013-05-08 09:51:00,
2013-05-08 03:56:00,42.7,38.8,29.81,SW,224,0.0,1.0,86,0.00,,,0.00,WUHU216DAVISVP2,2013-05-08 09:56:00,
2013-05-08 04:01:00,42.7,38.8,29.81,SW,223,1.0,1.0,86,0.00,,,0.00,WUHU216DAVISVP2,2013-05-08 10:01:00,
2013-05-08 04:06:00,42.5,38.9,29.81,SW,223,0.0,1.0,87,0.00,,,0.00,WUHU216DAVISVP2,2013-05-08 10:06:00,
2013-05-08 04:11:00,42.5,38.9,29.81,SW,223,0.0,1.0,87,0.00,,,0.00,WUHU216DAVISVP2,2013-05-08 10:11:00,
2013-05-08 04:16:00,42.6,39.0,29.82,SW,223,0.0,1.0,87,0.00,,,0.00,WUHU216DAVISVP2,2013-05-08 10:16:00,
2013-05-08 04:21:00,42.5,38.9,29.82,South,191,1.0,1.0,87,0.00,,,0.00,WUHU216DAVISVP2,2013-05-08 10:21:00,
2013-05-08 04:26:00,42.5,38.9,29.82,South,186,0.0,1.0,87,0.00,,,0.00,WUHU216DAVISVP2,2013-05-08 10:26:00,
2013-05-08 04:31:00,42.6,39.0,29.82,SSE,158,1.2,2.0,87,0.00,,,0.00,WUHU216DAVISVP2,2013-05-08 10:31:00,
2013-05-08 04:36:00,42.8,39.2,29.82,SSE,158,1.0,2.0,87,0.00,,,0.00,WUHU216DAVISVP2,2013-05-08 10:36:00,
2013-05-08 04:41:00,43.1,39.2,29.82,South,181,1.4,3.0,86,0.00,,,0.00,WUHU216DAVISVP2,2013-05-08 10:41:00,
2013-05-08 04:46:00,43.3,39.1,29.82,South,174,1.0,3.0,85,0.00,,,0.00,WUHU216DAVISVP2,2013-05-08 10:46:00,
2013-05-08 04:51:00,43.3,39.1,29.81,SSE,158,1.1,3.0,85,0.00,,,0.00,WUHU216DAVISVP2,2013-05-08 10:51:00,
2013-05-08 04:56:00,43.3,38.8,29.82,South,177,1.2,3.0,84,0.00,,,0.00,WUHU216DAVISVP2,2013-05-08 10:56:00,
2013-05-08 05:01:00,43.3,38.8,29.82,South,178,1.4,2.0,84,0.00,,,0.00,WUHU216DAVISVP2,2013-05-08 11:01:00,
2013-05-08 05:06:00,43.3,38.8,29.82,South,188,0.0,2.0,84,0.00,,,0.00,WUHU216DAVISVP2,2013-05-08 11:06:00,
2013-05-08 05:11:00,43.3,38.8,29.82,SSW,198,0.0,2.0,84,0.00,,,0.00,WUHU216DAVISVP2,2013-05-08 11:11:00,
2013-05-08 05:16:00,43.3,38.8,29.82,SSW,198,0.0,2.0,84,0.00,,,0.00,WUHU216DAVISVP2,2013-05-08 11:16:00,
2013-05-08 05:21:00,43.2,38.7,29.82,SSW,198,0.0,1.0,84,0.00,,,0.00,WUHU216DAVISVP2,2013-05-08 11:21:00,
2013-05-08 05:26:00,43.1,38.6,29.82,SSW,198,0.0,0.0,84,0.00,,,0.00,WUHU216DAVISVP2,2013-05-08 11:26:00,
2013-05-08 05:31:00,43.1,38.6,29.82,SSE,156,1.0,1.0,84,0.00,,,0.00,WUHU216DAVISVP2,2013-05-08 11:31:00,
2013-05-08 05:36:00,43.1,38.6,29.82,SSE,147,0.0,1.0,84,0.00,,,0.00,WUHU216DAVISVP2,2013-05-08 11:36:00,
2013-05-08 05:41:00,43.1,38.6,29.81,SSW,197,0.0,1.0,84,0.00,,,0.00,WUHU216DAVISVP2,2013-05-08 11:41:00,
2013-05-08 05:46:00,43.1,38.6,29.81,SE,131,1.0,1.0,84,0.00,,,0.00,WUHU216DAVISVP2,2013-05-08 11:46:00,
2013-05-08 05:51:00,43.2,38.7,29.81,SE,126,0.0,1.0,84,0.00,,,0.00,WUHU216DAVISVP2,2013-05-08 11:51:00,
2013-05-08 05:56:00,43.2,38.7,29.81,SSE,166,1.0,1.0,84,0.00,,,0.00,WUHU216DAVISVP2,2013-05-08 11:56:00,
2013-05-08 06:01:00,43.3,38.5,29.82,SSE,162,1.1,2.0,83,0.00,,,0.00,WUHU216DAVISVP2,2013-05-08 12:01:00,
2013-05-08 06:06:00,43.8,38.4,29.82,South,172,3.0,3.0,81,0.00,,,0.00,WUHU216DAVISVP2,2013-05-08 12:06:00,
2013-05-08 06:11:00,44.1,38.7,29.82,South,188,0.0,3.0,81,0.00,,,0.00,WUHU216DAVISVP2,2013-05-08 12:11:00,
2013-05-08 06:16:00,44.1,38.7,29.82,South,188,0.0,3.0,81,0.00,,,0.00,WUHU216DAVISVP2,2013-05-08 12:16:00,
2013-05-08 06:21:00,44.3,38.5,29.82,SSE,162,1.0,4.0,80,0.00,,,0.00,WUHU216DAVISVP2,2013-05-08 12:21:00,
2013-05-08 06:26:00,44.4,38.6,29.82,South,184,3.0,4.0,80,0.00,,,0.00,WUHU216DAVISVP2,2013-05-08 12:26:00,
2013-05-08 06:31:00,44.8,38.4,29.83,South,184,2.0,4.0,78,0.00,,,0.00,WUHU216DAVISVP2,2013-05-08 12:31:00,
2013-05-08 06:36:00,45.0,38.3,29.83,SSW,197,1.0,4.0,77,0.00,,,0.00,WUHU216DAVISVP2,2013-05-08 12:36:00,
2013-05-08 06:41:00,45.2,38.5,29.84,SSE,153,0.0,4.0,77,0.00,,,0.00,WUHU216DAVISVP2,2013-05-08 12:41:00,
2013-05-08 06:46:00,45.3,38.6,29.84,SSE,153,0.0,4.0,77,0.00,,,0.00,WUHU216DAVISVP2,2013-05-08 12:46:00,
2013-05-08 06:51:00,45.3,38.6,29.84,SSE,153,0.0,2.0,77,0.00,,,0.00,WUHU216DAVISVP2,2013-05-08 12:51:00,
2013-05-08 06:56:00,45.7,38.6,29.85,South,190,3.0,3.0,76,0.00,,,0.00,WUHU216DAVISVP2,2013-05-08 12:56:00,
2013-05-08 07:01:00,46.1,39.0,29.85,SSW,205,0.0,3.0,76,0.00,,,0.00,WUHU216DAVISVP2,2013-05-08 13:01:00,
2013-05-08 07:06:00,46.4,39.0,29.85,SSE,154,0.0,3.0,75,0.00,,,0.00,WUHU216DAVISVP2,2013-05-08 13:06:00,
2013-05-08 07:11:00,46.5,39.1,29.85,SSE,152,1.0,3.0,75,0.00,,,0.00,WUHU216DAVISVP2,2013-05-08 13:11:00,
2013-05-08 07:16:00,46.8,39.7,29.85,SSE,153,1.0,2.0,76,0.00,,,0.00,WUHU216DAVISVP2,2013-05-08 13:16:00,
2013-05-08 07:21:00,47.1,39.7,29.85,SSW,212,0.0,2.0,75,0.00,,,0.00,WUHU216DAVISVP2,2013-05-08 13:21:00,
2013-05-08 07:26:00,47.5,39.7,29.85,SSW,207,1.0,2.0,74,0.00,,,0.00,WUHU216DAVISVP2,2013-05-08 13:26:00,
2013-05-08 07:31:00,47.7,39.6,29.85,ESE,117,0.0,2.0,73,0.00,,,0.00,WUHU216DAVISVP2,2013-05-08 13:31:00,
2013-05-08 07:36:00,47.9,39.4,29.85,South,170,1.0,3.0,72,0.00,,,0.00,WUHU216DAVISVP2,2013-05-08 13:36:00,
2013-05-08 07:41:00,48.3,39.1,29.85,SSE,165,1.0,3.0,70,0.00,,,0.00,WUHU216DAVISVP2,2013-05-08 13:41:00,
2013-05-08 07:46:00,48.6,39.4,29.86,SE,146,0.0,3.0,70,0.00,,,0.00,WUHU216DAVISVP2,2013-05-08 13:46:00,
2013-05-08 07:51:00,48.8,39.2,29.86,South,173,1.1,3.0,69,0.00,,,0.00,WUHU216DAVISVP2,2013-05-08 13:51:00,
2013-05-08 07:56:00,49.1,39.8,29.85,SW,221,1.8,3.0,70,0.00,,,0.00,WUHU216DAVISVP2,2013-05-08 13:56:00,
2013-05-08 08:01:00,49.4,39.0,29.85,South,179,1.4,3.0,67,0.00,,,0.00,WUHU216DAVISVP2,2013-05-08 14:01:00,
2013-05-08 08:07:00,49.5,39.1,29.85,SE,132,1.1,3.0,67,0.00,,,0.00,WUHU216DAVISVP2,2013-05-08 14:07:00,
2013-05-08 08:11:00,49.8,39.8,29.86,South,181,1.1,3.0,68,0.00,,,0.00,WUHU216DAVISVP2,2013-05-08 14:11:00,
2013-05-08 08:16:00,50.0,39.2,29.86,SSW,198,1.0,2.0,66,0.00,,,0.00,WUHU216DAVISVP2,2013-05-08 14:16:00,
2013-05-08 08:21:00,50.3,40.2,29.86,SSE,148,1.0,2.0,68,0.00,,,0.00,WUHU216DAVISVP2,2013-05-08 14:21:00,
2013-05-08 08:26:00,50.5,39.7,29.86,SE,141,1.3,3.0,66,0.00,,,0.00,WUHU216DAVISVP2,2013-05-08 14:26:00,
2013-05-08 08:32:00,50.7,39.5,29.86,SSE,163,2.0,3.0,65,0.00,,,0.00,WUHU216DAVISVP2,2013-05-08 14:32:00,
2013-05-08 08:36:00,50.8,39.6,29.87,South,176,3.4,7.0,65,0.00,,,0.00,WUHU216DAVISVP2,2013-05-08 14:36:00,
2013-05-08 08:41:00,50.8,40.7,29.87,SSE,152,3.0,7.0,68,0.00,,,0.00,WUHU216DAVISVP2,2013-05-08 14:41:00,
2013-05-08 08:46:00,50.3,41.4,29.87,South,174,2.3,7.0,71,0.00,,,0.00,WUHU216DAVISVP2,2013-05-08 14:46:00,
2013-05-08 08:51:00,49.8,41.9,29.87,South,175,1.7,7.0,74,0.00,,,0.00,WUHU216DAVISVP2,2013-05-08 14:51:00,
2013-05-08 08:56:00,49.4,42.5,29.88,SSE,157,2.7,6.0,77,0.00,,,0.00,WUHU216DAVISVP2,2013-05-08 14:56:00,
2013-05-08 09:01:00,49.2,42.4,29.88,SSE,159,3.5,9.0,77,0.01,,,0.01,WUHU216DAVISVP2,2013-05-08 15:01:00,
2013-05-08 09:06:00,49.1,42.9,29.88,SSW,210,2.0,9.0,79,0.01,,,0.01,WUHU216DAVISVP2,2013-05-08 15:06:00,
2013-05-08 09:12:00,49.2,43.6,29.88,ESE,111,1.4,9.0,81,0.01,,,0.01,WUHU216DAVISVP2,2013-05-08 15:12:00,
2013-05-08 09:16:00,49.2,43.0,29.88,South,172,1.3,7.0,79,0.01,,,0.01,WUHU216DAVISVP2,2013-05-08 15:16:00,
2013-05-08 09:22:00,49.2,42.7,29.88,SSW,194,1.3,6.0,78,0.01,,,0.01,WUHU216DAVISVP2,2013-05-08 15:22:00,
2013-05-08 09:26:00,49.3,43.1,29.87,WNW,288,1.2,4.0,79,0.01,,,0.01,WUHU216DAVISVP2,2013-05-08 15:26:00,
2013-05-08 09:31:00,49.4,43.2,29.87,West,265,1.0,4.0,79,0.01,,,0.01,WUHU216DAVISVP2,2013-05-08 15:31:00,
2013-05-08 09:36:00,49.5,43.3,29.87,SW,221,1.0,3.0,79,0.01,,,0.01,WUHU216DAVISVP2,2013-05-08 15:36:00,
2013-05-08 09:41:00,49.5,42.9,29.87,SW,221,1.0,2.0,78,0.01,,,0.01,WUHU216DAVISVP2,2013-05-08 15:41:00,
2013-05-08 09:46:00,49.5,43.3,29.88,SW,222,0.0,2.0,79,0.01,,,0.01,WUHU216DAVISVP2,2013-05-08 15:46:00,
2013-05-08 09:51:00,49.6,43.4,29.88,West,259,0.0,2.0,79,0.01,,,0.01,WUHU216DAVISVP2,2013-05-08 15:51:00,
2013-05-08 09:56:00,49.6,43.7,29.88,West,259,0.0,2.0,80,0.01,,,0.01,WUHU216DAVISVP2,2013-05-08 15:56:00,
2013-05-08 10:01:00,49.5,43.6,29.88,NE,37,1.0,2.0,80,0.00,,,0.01,WUHU216DAVISVP2,2013-05-08 16:01:00,
2013-05-08 10:06:00,49.5,43.9,29.87,NNE,33,1.0,2.0,81,0.00,,,0.01,WUHU216DAVISVP2,2013-05-08 16:06:00,
2013-05-08 10:11:00,49.4,44.1,29.87,NNW,341,1.0,2.0,82,0.00,,,0.01,WUHU216DAVISVP2,2013-05-08 16:11:00,
2013-05-08 10:16:00,49.4,44.1,29.87,NW,320,0.0,2.0,82,0.00,,,0.01,WUHU216DAVISVP2,2013-05-08 16:16:00,
2013-05-08 10:21:00,49.5,44.6,29.87,NW,320,0.0,1.0,83,0.01,,,0.02,WUHU216DAVISVP2,2013-05-08 16:21:00,
2013-05-08 10:26:00,49.6,44.0,29.87,WNW,282,1.4,3.0,81,0.01,,,0.02,WUHU216DAVISVP2,2013-05-08 16:26:00,
2013-05-08 10:31:00,49.7,44.4,29.87,NW,307,2.0,4.0,82,0.01,,,0.02,WUHU216DAVISVP2,2013-05-08 16:31:00,
2013-05-08 10:36:00,50.1,44.8,29.86,WSW,239,3.0,4.0,82,0.01,,,0.02,WUHU216DAVISVP2,2013-05-08 16:36:00,
2013-05-08 10:41:00,50.9,45.3,29.87,West,263,2.4,4.0,81,0.01,,,0.02,WUHU216DAVISVP2,2013-05-08 16:41:00,
2013-05-08 10:46:00,51.5,45.9,29.86,West,279,2.4,6.0,81,0.01,,,0.02,WUHU216DAVISVP2,2013-05-08 16:46:00,
2013-05-08 10:51:00,51.9,46.0,29.86,WSW,255,2.0,7.0,80,0.01,,,0.02,WUHU216DAVISVP2,2013-05-08 16:51:00,
2013-05-08 10:56:00,52.7,45.4,29.86,West,266,3.0,7.0,76,0.01,,,0.02,WUHU216DAVISVP2,2013-05-08 16:56:00,
2013-05-08 11:01:00,53.0,45.0,29.87,West,263,2.4,7.0,74,0.01,,,0.02,WUHU216DAVISVP2,2013-05-08 17:01:00,
2013-05-08 11:06:00,53.4,44.7,29.86,WNW,293,4.0,7.0,72,0.01,,,0.02,WUHU216DAVISVP2,2013-05-08 17:06:00,
2013-05-08 11:11:00,53.3,45.3,29.86,WNW,300,4.0,6.0,74,0.01,,,0.02,WUHU216DAVISVP2,2013-05-08 17:11:00,
2013-05-08 11:16:00,53.6,44.8,29.86,WNW,301,5.0,8.0,72,0.01,,,0.02,WUHU216DAVISVP2,2013-05-08 17:16:00,
2013-05-08 11:21:00,53.3,44.5,29.86,WNW,297,6.5,10.0,72,0.00,,,0.02,WUHU216DAVISVP2,2013-05-08 17:21:00,
2013-05-08 11:26:00,53.4,44.0,29.86,NW,308,5.2,10.0,70,0.00,,,0.02,WUHU216DAVISVP2,2013-05-08 17:26:00,
2013-05-08 11:31:00,53.8,44.4,29.86,WNW,284,6.0,10.0,70,0.00,,,0.02,WUHU216DAVISVP2,2013-05-08 17:31:00,
2013-05-08 11:36:00,54.4,45.3,29.86,NNW,330,4.0,10.0,71,0.00,,,0.02,WUHU216DAVISVP2,2013-05-08 17:36:00,
2013-05-08 11:41:00,55.3,44.7,29.86,NW,323,2.5,9.0,67,0.00,,,0.02,WUHU216DAVISVP2,2013-05-08 17:41:00,
2013-05-08 11:46:00,55.6,43.7,29.85,NW,308,3.2,10.0,64,0.00,,,0.02,WUHU216DAVISVP2,2013-05-08 17:46:00,
2013-05-08 11:51:00,56.1,43.4,29.85,WNW,285,4.0,10.0,62,0.00,,,0.02,WUHU216DAVISVP2,2013-05-08 17:51:00,
2013-05-08 11:56:00,56.6,43.4,29.85,NW,304,4.0,10.0,61,0.00,,,0.02,WUHU216DAVISVP2,2013-05-08 17:56:00,
2013-05-08 12:01:00,56.5,42.9,29.85,WNW,303,6.0,10.0,60,0.00,,,0.02,WUHU216DAVISVP2,2013-05-08 18:01:00,
2013-05-08 12:06:00,57.1,43.3,29.85,WNW,298,5.0,10.0,60,0.00,,,0.02,WUHU216DAVISVP2,2013-05-08 18:06:00,
2013-05-08 12:11:00,57.3,44.4,29.85,NW,312,2.8,10.0,62,0.00,,,0.02,WUHU216DAVISVP2,2013-05-08 18:11:00,
2013-05-08 12:16:00,58.2,43.1,29.85,NNW,331,5.0,10.0,57,0.00,,,0.02,WUHU216DAVISVP2,2013-05-08 18:16:00,
2013-05-08 12:21:00,58.2,43.1,29.85,NNW,340,5.0,10.0,57,0.00,,,0.02,WUHU216DAVISVP2,2013-05-08 18:21:00,
2013-05-08 12:26:00,58.2,43.1,29.85,NW,323,4.8,9.0,57,0.00,,,0.02,WUHU216DAVISVP2,2013-05-08 18:26:00,
2013-05-08 12:31:00,57.4,42.4,29.85,WNW,296,6.9,14.0,57,0.00,,,0.02,WUHU216DAVISVP2,2013-05-08 18:31:00,
2013-05-08 12:36:00,57.7,42.7,29.84,NW,312,4.6,14.0,57,0.00,,,0.02,WUHU216DAVISVP2,2013-05-08 18:36:00,
2013-05-08 12:41:00,58.6,42.6,29.84,NW,325,3.6,14.0,55,0.00,,,0.02,WUHU216DAVISVP2,2013-05-08 18:41:00,
2013-05-08 12:46:00,58.6,42.6,29.84,NW,311,3.4,14.0,55,0.00,,,0.02,WUHU216DAVISVP2,2013-05-08 18:46:00,
2013-05-08 12:51:00,60.1,41.9,29.84,NNW,332,4.1,9.0,51,0.00,,,0.02,WUHU216DAVISVP2,2013-05-08 18:51:00,
2013-05-08 12:56:00,60.8,41.5,29.83,WNW,303,4.5,8.0,49,0.00,,,0.02,WUHU216DAVISVP2,2013-05-08 18:56:00,
2013-05-08 13:01:00,60.6,41.3,29.83,West,277,3.6,11.0,49,0.00,,,0.02,WUHU216DAVISVP2,2013-05-08 19:01:00,
2013-05-08 13:06:00,61.1,41.8,29.83,NNW,344,3.8,11.0,49,0.00,,,0.02,WUHU216DAVISVP2,2013-05-08 19:06:00,
2013-05-08 13:11:00,62.2,41.1,29.83,WNW,288,6.0,11.0,46,0.00,,,0.02,WUHU216DAVISVP2,2013-05-08 19:11:00,
2013-05-08 13:16:00,61.1,40.7,29.83,NNW,329,4.4,11.0,47,0.00,,,0.02,WUHU216DAVISVP2,2013-05-08 19:16:00,
2013-05-08 13:21:00,61.1,40.7,29.83,WNW,294,4.8,10.0,47,0.00,,,0.02,WUHU216DAVISVP2,2013-05-08 19:21:00,
2013-05-08 13:26:00,60.3,39.9,29.83,NW,313,2.8,10.0,47,0.00,,,0.02,WUHU216DAVISVP2,2013-05-08 19:26:00,
2013-05-08 13:31:00,60.1,39.2,29.83,WNW,293,5.4,10.0,46,0.00,,,0.02,WUHU216DAVISVP2,2013-05-08 19:31:00,
2013-05-08 13:36:00,60.6,40.2,29.83,NE,51,4.0,10.0,47,0.00,,,0.02,WUHU216DAVISVP2,2013-05-08 19:36:00,
2013-05-08 13:41:00,61.0,39.4,29.83,NNW,340,2.0,8.0,45,0.00,,,0.02,WUHU216DAVISVP2,2013-05-08 19:41:00,
2013-05-08 13:46:00,61.1,40.7,29.83,NNW,334,3.4,8.0,47,0.00,,,0.02,WUHU216DAVISVP2,2013-05-08 19:46:00,
2013-05-08 13:51:00,60.9,39.9,29.83,ENE,63,1.6,7.0,46,0.00,,,0.02,WUHU216DAVISVP2,2013-05-08 19:51:00,
2013-05-08 13:56:00,60.4,40.0,29.84,SE,138,8.0,11.0,47,0.00,,,0.02,WUHU216DAVISVP2,2013-05-08 19:56:00,
2013-05-08 14:01:00,57.7,40.7,29.84,SSE,149,5.7,13.0,53,0.00,,,0.02,WUHU216DAVISVP2,2013-05-08 20:01:00,
2013-05-08 14:06:00,55.9,40.5,29.85,South,174,5.5,13.0,56,0.00,,,0.02,WUHU216DAVISVP2,2013-05-08 20:06:00,
2013-05-08 14:11:00,54.9,40.0,29.85,SSE,161,19.0,19.0,57,0.00,,,0.02,WUHU216DAVISVP2,2013-05-08 20:11:00,
2013-05-08 14:16:00,54.1,40.2,29.85,SSE,158,5.1,19.0,59,0.00,,,0.02,WUHU216DAVISVP2,2013-05-08 20:16:00,
2013-05-08 14:21:00,53.9,40.0,29.85,SSE,168,6.3,19.0,59,0.00,,,0.02,WUHU216DAVISVP2,2013-05-08 20:21:00,
2013-05-08 14:26:00,53.6,39.3,29.85,South,173,7.7,19.0,58,0.00,,,0.02,WUHU216DAVISVP2,2013-05-08 20:26:00,
2013-05-08 14:31:00,53.0,39.6,29.86,South,185,15.0,18.0,60,0.00,,,0.02,WUHU216DAVISVP2,2013-05-08 20:31:00,
2013-05-08 14:36:00,52.3,39.4,29.86,SSE,161,9.3,18.0,61,0.00,,,0.02,WUHU216DAVISVP2,2013-05-08 20:36:00,
2013-05-08 14:41:00,51.8,39.3,29.86,South,171,4.8,17.0,62,0.00,,,0.02,WUHU216DAVISVP2,2013-05-08 20:41:00,
2013-05-08 14:46:00,51.4,39.7,29.86,SSW,203,14.0,21.0,64,0.00,,,0.02,WUHU216DAVISVP2,2013-05-08 20:46:00,
2013-05-08 14:51:00,51.0,39.8,29.86,South,176,5.1,21.0,65,0.00,,,0.02,WUHU216DAVISVP2,2013-05-08 20:51:00,
2013-05-08 14:56:00,51.0,40.5,29.86,SSW,192,2.0,21.0,67,0.00,,,0.02,WUHU216DAVISVP2,2013-05-08 20:56:00,
2013-05-08 15:01:00,50.9,40.4,29.86,SSE,158,5.6,21.0,67,0.00,,,0.02,WUHU216DAVISVP2,2013-05-08 21:01:00,
2013-05-08 15:06:00,50.5,40.8,29.86,SSE,148,10.0,14.0,69,0.00,,,0.02,WUHU216DAVISVP2,2013-05-08 21:06:00,
2013-05-08 15:11:00,50.2,40.5,29.87,SSW,194,7.0,12.0,69,0.00,,,0.02,WUHU216DAVISVP2,2013-05-08 21:11:00,
2013-05-08 15:16:00,49.9,41.0,29.87,SSE,162,1.6,12.0,71,0.00,,,0.02,WUHU216DAVISVP2,2013-05-08 21:16:00,
2013-05-08 15:21:00,49.4,40.8,29.87,SSE,165,5.8,13.0,72,0.00,,,0.02,WUHU216DAVISVP2,2013-05-08 21:21:00,
2013-05-08 15:26:00,49.0,41.1,29.87,SSE,158,4.1,13.0,74,0.00,,,0.02,WUHU216DAVISVP2,2013-05-08 21:26:00,
2013-05-08 15:31:00,48.5,40.9,29.88,South,172,6.0,14.0,75,0.00,,,0.02,WUHU216DAVISVP2,2013-05-08 21:31:00,
2013-05-08 15:36:00,48.1,41.3,29.89,SSE,151,4.7,14.0,77,0.01,,,0.03,WUHU216DAVISVP2,2013-05-08 21:36:00,
2013-05-08 15:41:00,47.7,41.9,29.90,SE,136,3.2,14.0,80,0.01,,,0.03,WUHU216DAVISVP2,2013-05-08 21:41:00,
2013-05-08 15:46:00,47.4,42.2,29.90,SSE,152,2.1,14.0,82,0.02,,,0.04,WUHU216DAVISVP2,2013-05-08 21:46:00,
2013-05-08 15:51:00,47.2,42.6,29.89,SSW,211,1.3,12.0,84,0.04,,,0.06,WUHU216DAVISVP2,2013-05-08 21:51:00,
2013-05-08 15:56:00,47.0,42.4,29.89,SSE,160,1.6,8.0,84,0.09,,,0.11,WUHU216DAVISVP2,2013-05-08 21:56:00,
2013-05-08 16:01:00,46.8,43.1,29.90,South,170,1.0,6.0,87,0.09,,,0.11,WUHU216DAVISVP2,2013-05-08 22:01:00,
2013-05-08 16:06:00,46.8,43.1,29.89,SSE,156,1.5,4.0,87,0.09,,,0.11,WUHU216DAVISVP2,2013-05-08 22:06:00,
2013-05-08 16:11:00,46.8,42.8,29.89,SE,129,4.0,5.0,86,0.10,,,0.12,WUHU216DAVISVP2,2013-05-08 22:11:00,
2013-05-08 16:16:00,46.8,42.8,29.89,SSE,165,2.3,5.0,86,0.11,,,0.13,WUHU216DAVISVP2,2013-05-08 22:16:00,
2013-05-08 16:21:00,46.8,42.8,29.89,South,178,1.7,5.0,86,0.12,,,0.14,WUHU216DAVISVP2,2013-05-08 22:21:00,
2013-05-08 16:26:00,46.8,43.1,29.89,SE,134,2.0,6.0,87,0.13,,,0.15,WUHU216DAVISVP2,2013-05-08 22:26:00,
2013-05-08 16:31:00,46.8,43.4,29.88,SW,215,3.0,6.0,88,0.14,,,0.16,WUHU216DAVISVP2,2013-05-08 22:31:00,
2013-05-08 16:36:00,46.7,43.3,29.89,South,188,2.2,8.0,88,0.13,,,0.16,WUHU216DAVISVP2,2013-05-08 22:36:00,
2013-05-08 16:41:00,46.7,43.0,29.89,South,178,2.3,8.0,87,0.14,,,0.17,WUHU216DAVISVP2,2013-05-08 22:41:00,
2013-05-08 16:46:00,46.6,43.2,29.90,SSE,166,1.6,8.0,88,0.14,,,0.18,WUHU216DAVISVP2,2013-05-08 22:46:00,
2013-05-08 16:51:00,46.5,43.1,29.90,South,191,5.0,7.0,88,0.12,,,0.19,WUHU216DAVISVP2,2013-05-08 22:51:00,
2013-05-08 16:56:00,46.5,43.1,29.90,South,170,3.0,7.0,88,0.10,,,0.21,WUHU216DAVISVP2,2013-05-08 22:56:00,
2013-05-08 17:01:00,46.5,43.1,29.91,SSE,150,3.0,6.0,88,0.11,,,0.22,WUHU216DAVISVP2,2013-05-08 23:01:00,
2013-05-08 17:06:00,46.3,42.9,29.92,South,169,1.3,6.0,88,0.13,,,0.24,WUHU216DAVISVP2,2013-05-08 23:06:00,
2013-05-08 17:11:00,46.3,42.9,29.91,SSE,155,1.1,6.0,88,0.14,,,0.26,WUHU216DAVISVP2,2013-05-08 23:11:00,
2013-05-08 17:16:00,46.3,42.9,29.91,SE,146,0.0,4.0,88,0.15,,,0.28,WUHU216DAVISVP2,2013-05-08 23:16:00,
2013-05-08 17:21:00,46.4,43.3,29.92,SSW,200,0.0,3.0,89,0.15,,,0.29,WUHU216DAVISVP2,2013-05-08 23:21:00,
2013-05-08 17:26:00,46.4,43.3,29.92,SSW,195,1.0,3.0,89,0.14,,,0.29,WUHU216DAVISVP2,2013-05-08 23:26:00,
2013-05-08 17:31:00,46.5,43.7,29.92,SSW,195,0.0,2.0,90,0.14,,,0.30,WUHU216DAVISVP2,2013-05-08 23:31:00,
2013-05-08 17:36:00,46.9,44.1,29.92,WSW,248,1.0,2.0,90,0.14,,,0.30,WUHU216DAVISVP2,2013-05-08 23:36:00,
2013-05-08 17:41:00,47.3,44.5,29.91,West,275,1.0,2.0,90,0.14,,,0.31,WUHU216DAVISVP2,2013-05-08 23:41:00,
2013-05-08 17:46:00,47.2,44.1,29.90,WSW,257,4.0,5.0,89,0.13,,,0.31,WUHU216DAVISVP2,2013-05-08 23:46:00,
2013-05-08 17:51:00,47.2,44.1,29.90,SW,233,1.6,6.0,89,0.13,,,0.32,WUHU216DAVISVP2,2013-05-08 23:51:00,
2013-05-08 17:56:00,47.2,44.1,29.91,SSE,151,1.1,6.0,89,0.11,,,0.32,WUHU216DAVISVP2,2013-05-08 23:56:00,
2013-05-08 18:01:00,47.2,43.8,29.91,West,276,2.0,6.0,88,0.10,,,0.32,WUHU216DAVISVP2,2013-05-09 00:01:00,
2013-05-08 18:06:00,47.3,43.6,29.91,West,274,0.0,5.0,87,0.08,,,0.32,WUHU216DAVISVP2,2013-05-09 00:06:00,
2013-05-08 18:11:00,47.3,43.6,29.91,West,259,1.1,5.0,87,0.07,,,0.33,WUHU216DAVISVP2,2013-05-09 00:11:00,
2013-05-08 18:16:00,47.4,43.7,29.91,West,270,1.5,3.0,87,0.05,,,0.33,WUHU216DAVISVP2,2013-05-09 00:16:00,
2013-05-08 18:21:00,47.5,43.8,29.91,SW,223,1.9,3.0,87,0.04,,,0.33,WUHU216DAVISVP2,2013-05-09 00:21:00,
2013-05-08 18:26:00,47.3,43.3,29.91,WSW,247,2.0,5.0,86,0.04,,,0.33,WUHU216DAVISVP2,2013-05-09 00:26:00,
2013-05-08 18:31:00,47.3,43.3,29.92,South,179,1.0,5.0,86,0.03,,,0.33,WUHU216DAVISVP2,2013-05-09 00:31:00,
2013-05-08 18:36:00,47.2,43.2,29.93,East,85,1.1,5.0,86,0.03,,,0.33,WUHU216DAVISVP2,2013-05-09 00:36:00,
2013-05-08 18:41:00,47.1,43.1,29.92,SSE,163,2.0,4.0,86,0.02,,,0.33,WUHU216DAVISVP2,2013-05-09 00:41:00,
2013-05-08 18:46:00,47.2,43.5,29.93,SSW,207,1.0,3.0,87,0.01,,,0.33,WUHU216DAVISVP2,2013-05-09 00:46:00,
2013-05-08 18:51:00,47.3,43.3,29.92,WSW,249,1.0,2.0,86,0.01,,,0.33,WUHU216DAVISVP2,2013-05-09 00:51:00,
2013-05-08 18:56:00,47.4,43.7,29.92,WSW,256,1.0,3.0,87,0.01,,,0.33,WUHU216DAVISVP2,2013-05-09 00:56:00,
2013-05-08 19:01:00,47.4,44.0,29.92,WSW,257,1.0,3.0,88,0.01,,,0.33,WUHU216DAVISVP2,2013-05-09 01:01:00,
2013-05-08 19:06:00,47.4,43.7,29.93,WSW,245,1.3,3.0,87,0.01,,,0.33,WUHU216DAVISVP2,2013-05-09 01:06:00,
2013-05-08 19:11:00,47.4,43.7,29.93,WSW,252,1.2,3.0,87,0.00,,,0.33,WUHU216DAVISVP2,2013-05-09 01:11:00,
2013-05-08 19:16:00,47.5,43.8,29.93,SW,236,0.0,2.0,87,0.00,,,0.33,WUHU216DAVISVP2,2013-05-09 01:16:00,
2013-05-08 19:21:00,47.5,44.1,29.93,SW,236,0.0,2.0,88,0.00,,,0.33,WUHU216DAVISVP2,2013-05-09 01:21:00,
2013-05-08 19:26:00,47.5,43.8,29.93,NW,307,1.8,3.0,87,0.00,,,0.33,WUHU216DAVISVP2,2013-05-09 01:26:00,
2013-05-08 19:31:00,47.6,43.9,29.94,NW,307,2.0,4.0,87,0.00,,,0.33,WUHU216DAVISVP2,2013-05-09 01:31:00,
2013-05-08 19:36:00,47.7,43.7,29.94,NNW,338,1.4,4.0,86,0.00,,,0.33,WUHU216DAVISVP2,2013-05-09 01:36:00,
2013-05-08 19:41:00,47.7,44.3,29.95,ESE,119,1.0,4.0,88,0.00,,,0.33,WUHU216DAVISVP2,2013-05-09 01:41:00,
2013-05-08 19:46:00,47.7,44.6,29.95,East,96,1.1,4.0,89,0.00,,,0.33,WUHU216DAVISVP2,2013-05-09 01:46:00,
2013-05-08 19:51:00,47.7,44.3,29.96,NE,34,2.2,4.0,88,0.01,,,0.34,WUHU216DAVISVP2,2013-05-09 01:51:00,
2013-05-08 19:56:00,47.6,44.5,29.96,NNE,32,1.0,4.0,89,0.02,,,0.35,WUHU216DAVISVP2,2013-05-09 01:56:00,
2013-05-08 20:01:00,47.5,44.7,29.96,ENE,60,2.0,4.0,90,0.02,,,0.35,WUHU216DAVISVP2,2013-05-09 02:01:00,
2013-05-08 20:06:00,47.3,44.5,29.96,ESE,107,1.0,4.0,90,0.02,,,0.35,WUHU216DAVISVP2,2013-05-09 02:06:00,
2013-05-08 20:11:00,47.3,44.8,29.96,NNE,30,0.0,4.0,91,0.02,,,0.35,WUHU216DAVISVP2,2013-05-09 02:11:00,
2013-05-08 20:16:00,47.3,44.8,29.96,NE,41,0.0,4.0,91,0.02,,,0.35,WUHU216DAVISVP2,2013-05-09 02:16:00,
2013-05-08 20:21:00,47.3,45.1,29.96,North,350,1.6,3.0,92,0.02,,,0.35,WUHU216DAVISVP2,2013-05-09 02:21:00,
2013-05-08 20:26:00,47.5,45.0,29.97,NNW,333,1.6,5.0,91,0.02,,,0.35,WUHU216DAVISVP2,2013-05-09 02:26:00,
2013-05-08 20:31:00,47.6,44.8,29.97,NE,49,3.0,5.0,90,0.02,,,0.35,WUHU216DAVISVP2,2013-05-09 02:31:00,
2013-05-08 20:36:00,47.6,44.8,29.96,North,355,3.0,5.0,90,0.02,,,0.35,WUHU216DAVISVP2,2013-05-09 02:36:00,
2013-05-08 20:41:00,47.6,44.5,29.97,NNE,33,3.1,6.0,89,0.02,,,0.35,WUHU216DAVISVP2,2013-05-09 02:41:00,
2013-05-08 20:46:00,47.6,44.8,29.97,NE,43,1.0,6.0,90,0.02,,,0.35,WUHU216DAVISVP2,2013-05-09 02:46:00,
2013-05-08 20:51:00,47.6,44.8,29.97,NNW,347,1.4,6.0,90,0.01,,,0.35,WUHU216DAVISVP2,2013-05-09 02:51:00,
2013-05-08 20:56:00,47.6,44.5,29.98,North,7,2.9,6.0,89,0.00,,,0.35,WUHU216DAVISVP2,2013-05-09 02:56:00,
2013-05-08 21:01:00,47.7,44.6,29.98,North,7,4.0,8.0,89,0.00,,,0.35,WUHU216DAVISVP2,2013-05-09 03:01:00,
2013-05-08 21:06:00,47.8,44.7,29.98,North,8,5.0,8.0,89,0.00,,,0.35,WUHU216DAVISVP2,2013-05-09 03:06:00,
2013-05-08 21:11:00,47.8,44.7,29.98,ENE,62,3.0,8.0,89,0.00,,,0.35,WUHU216DAVISVP2,2013-05-09 03:11:00,
2013-05-08 21:16:00,47.8,44.7,29.99,North,3,3.0,8.0,89,0.00,,,0.35,WUHU216DAVISVP2,2013-05-09 03:16:00,
2013-05-08 21:21:00,47.8,45.0,29.99,NNE,22,1.9,7.0,90,0.00,,,0.35,WUHU216DAVISVP2,2013-05-09 03:21:00,
2013-05-08 21:26:00,47.8,45.0,29.98,North,6,2.7,7.0,90,0.00,,,0.35,WUHU216DAVISVP2,2013-05-09 03:26:00,
2013-05-08 21:31:00,47.8,44.7,29.99,NNW,339,1.7,7.0,89,0.00,,,0.35,WUHU216DAVISVP2,2013-05-09 03:31:00,
2013-05-08 21:36:00,47.8,45.0,29.98,North,351,1.7,7.0,90,0.00,,,0.35,WUHU216DAVISVP2,2013-05-09 03:36:00,
2013-05-08 21:41:00,47.8,45.0,29.99,NW,324,3.0,7.0,90,0.00,,,0.35,WUHU216DAVISVP2,2013-05-09 03:41:00,
2013-05-08 21:46:00,47.8,45.0,29.99,North,2,2.7,8.0,90,0.00,,,0.35,WUHU216DAVISVP2,2013-05-09 03:46:00,
2013-05-08 21:51:00,47.9,45.1,29.99,NNW,346,2.0,8.0,90,0.00,,,0.35,WUHU216DAVISVP2,2013-05-09 03:51:00,
2013-05-08 21:56:00,47.8,45.3,29.99,NNE,30,4.0,8.0,91,0.00,,,0.35,WUHU216DAVISVP2,2013-05-09 03:56:00,
2013-05-08 22:01:00,47.8,45.3,29.99,NNE,15,2.1,8.0,91,0.00,,,0.35,WUHU216DAVISVP2,2013-05-09 04:01:00,
2013-05-08 22:06:00,47.7,45.2,29.99,NW,320,4.0,5.0,91,0.00,,,0.35,WUHU216DAVISVP2,2013-05-09 04:06:00,
2013-05-08 22:11:00,47.6,44.8,29.99,North,350,2.8,7.0,90,0.00,,,0.35,WUHU216DAVISVP2,2013-05-09 04:11:00,
2013-05-08 22:16:00,47.5,44.7,30.00,NNE,30,5.0,7.0,90,0.00,,,0.35,WUHU216DAVISVP2,2013-05-09 04:16:00,
2013-05-08 22:21:00,47.5,44.7,30.00,North,6,3.0,8.0,90,0.00,,,0.35,WUHU216DAVISVP2,2013-05-09 04:21:00,
2013-05-08 22:26:00,47.4,44.6,30.00,NW,323,2.1,8.0,90,0.00,,,0.35,WUHU216DAVISVP2,2013-05-09 04:26:00,
2013-05-08 22:31:00,47.3,44.5,30.00,NNW,341,1.3,8.0,90,0.00,,,0.35,WUHU216DAVISVP2,2013-05-09 04:31:00,
2013-05-08 22:36:00,47.3,44.5,29.99,WNW,288,4.0,8.0,90,0.00,,,0.35,WUHU216DAVISVP2,2013-05-09 04:36:00,
2013-05-08 22:41:00,47.1,44.0,29.99,NNW,327,2.0,8.0,89,0.00,,,0.35,WUHU216DAVISVP2,2013-05-09 04:41:00,
2013-05-08 22:46:00,47.1,44.0,29.99,WNW,294,1.6,4.0,89,0.00,,,0.35,WUHU216DAVISVP2,2013-05-09 04:46:00,
2013-05-08 22:51:00,47.0,44.2,29.99,ENE,72,2.0,4.0,90,0.00,,,0.35,WUHU216DAVISVP2,2013-05-09 04:51:00,
2013-05-08 22:56:00,47.0,44.2,29.99,North,7,1.0,3.0,90,0.01,,,0.36,WUHU216DAVISVP2,2013-05-09 04:56:00,
2013-05-08 23:01:00,46.9,44.1,29.99,North,8,0.0,3.0,90,0.01,,,0.36,WUHU216DAVISVP2,2013-05-09 05:01:00,
2013-05-08 23:06:00,46.8,44.0,30.00,North,8,1.0,2.0,90,0.01,,,0.36,WUHU216DAVISVP2,2013-05-09 05:06:00,
2013-05-08 23:11:00,46.8,44.0,30.00,North,8,0.0,2.0,90,0.01,,,0.36,WUHU216DAVISVP2,2013-05-09 05:11:00,
2013-05-08 23:16:00,46.7,44.2,30.00,NE,48,1.0,1.0,91,0.01,,,0.36,WUHU216DAVISVP2,2013-05-09 05:16:00,
2013-05-08 23:21:00,46.7,44.2,30.01,NE,47,1.0,1.0,91,0.02,,,0.37,WUHU216DAVISVP2,2013-05-09 05:21:00,
2013-05-08 23:26:00,46.7,44.5,30.02,NE,46,1.4,3.0,92,0.02,,,0.37,WUHU216DAVISVP2,2013-05-09 05:26:00,
2013-05-08 23:31:00,46.6,44.4,30.01,NNW,340,1.4,3.0,92,0.04,,,0.39,WUHU216DAVISVP2,2013-05-09 05:31:00,
2013-05-08 23:36:00,46.5,44.3,30.01,North,5,1.2,6.0,92,0.05,,,0.40,WUHU216DAVISVP2,2013-05-09 05:36:00,
2013-05-08 23:41:00,46.5,44.3,30.01,NW,313,1.8,6.0,92,0.06,,,0.41,WUHU216DAVISVP2,2013-05-09 05:41:00,
2013-05-08 23:46:00,46.4,44.2,30.01,NNW,331,2.4,6.0,92,0.06,,,0.41,WUHU216DAVISVP2,2013-05-09 05:46:00,
2013-05-08 23:51:00,46.3,44.1,30.01,NW,316,3.0,6.0,92,0.06,,,0.41,WUHU216DAVISVP2,2013-05-09 05:51:00,
2013-05-08 23:56:00,46.3,44.1,30.01,NW,321,2.3,5.0,92,0.06,,,0.42,WUHU216DAVISVP2,2013-05-09 05:56:00,